This is the latest recevied weather packets stored in our database for station/object K7FRY. If no packets are shown the sender has not sent any weather packets the latest 10 day(s).
| Time | Temp. | Humidity | Pressure | Rain* | Wind** | Luminosity | Snow |
|---|---|---|---|---|---|---|---|
| 1777557232 | 17.78° C | 29% | 1013.7 hPa | 0 mm | - | 71 W/m² | - |
| 1777556928 | 17.78° C | 26% | 1013.5 hPa | 0 mm | - | 69 W/m² | - |
| 1777556623 | 17.22° C | 27% | 1013.8 hPa | 0 mm | - | 76 W/m² | - |
| 1777556318 | 17.22° C | 27% | 1013.8 hPa | 0 mm | - | 61 W/m² | - |
| 1777556016 | 17.22° C | 28% | 1013.6 hPa | 0 mm | - | 49 W/m² | - |
| 1777555710 | 16.67° C | 27% | 1013.4 hPa | 0 mm | - | 45 W/m² | - |
| 1777555407 | 16.67° C | 28% | 1013.4 hPa | 0 mm | - | 42 W/m² | - |
| 1777555103 | 16.11° C | 28% | 1013.4 hPa | 0 mm | - | 30 W/m² | - |
| 1777554801 | 15.56° C | 29% | 1013.6 hPa | 0 mm | - | 26 W/m² | - |
| 1777554498 | 15.56° C | 29% | 1013.5 hPa | 0 mm | - | 21 W/m² | - |
| 1777554195 | 16.11° C | 28% | 1013.4 hPa | 0 mm | - | 15 W/m² | - |
| 1777553892 | 15.56° C | 28% | 1013.5 hPa | 0 mm | - | 11 W/m² | - |
| 1777553588 | 15.56° C | 28% | 1013.4 hPa | 0 mm | - | 6 W/m² | - |
| 1777553284 | 15.56° C | 28% | 1013.3 hPa | 0 mm | - | 3 W/m² | - |
| 1777552980 | 15.56° C | 28% | 1013.3 hPa | 0 mm | - | 1 W/m² | - |
| 1777552680 | 15.56° C | 28% | 1013.5 hPa | 0 mm | - | 0 W/m² | - |
| 1777552377 | 15.56° C | 29% | 1013.3 hPa | 0 mm | - | 0 W/m² | - |
| 1777552073 | 15.56° C | 29% | 1013.3 hPa | 0 mm | - | 0 W/m² | - |
| 1777551771 | 16.67° C | 27% | 1013.2 hPa | 0 mm | - | 0 W/m² | - |
| 1777551468 | 17.22° C | 26% | 1012.9 hPa | 0 mm | - | 0 W/m² | - |
| 1777551164 | 17.22° C | 26% | 1013.3 hPa | 0 mm | - | 0 W/m² | - |
| 1777550862 | 16.67° C | 27% | 1013.2 hPa | 0 mm | - | 0 W/m² | - |
| 1777550558 | 16.11° C | 28% | 1013.2 hPa | 0 mm | - | 0 W/m² | - |
| 1777550254 | 16.67° C | 27% | 1013.3 hPa | 0 mm | - | 0 W/m² | - |
| 1777549951 | 16.67° C | 27% | 1013.4 hPa | 0 mm | - | 0 W/m² | - |
* Rain latest hour (hover to see other rain measurements)
** Current wind speed in m/s (hover to see current wind gust speed)